1501416001.17,24832,23.56,74570.3,24.69,3.33,-1.05,0,*61
1501416002.4,24833,23.56,74568.0,24.73,4.19,-0.27,0,*55
1501416003.65,24834,23.56,74568.8,24.79,4.93,0.55,0,*72
1501416004.84,24835,23.56,74570.0,24.81,4.33,-0.11,0,*53
1501416006.09,24836,23.56,74568.0,24.85,3.03,-1.39,0,*6B
1501416007.32,24837,23.56,74570.8,24.91,3.11,-1.25,0,*61
1501416008.55,24838,23.56,74570.0,24.91,3.11,-1.29,0,*62
1501416009.77,24839,23.56,74568.5,24.97,1.37,-2.99,0,*6B
1501416010.98,24840,23.56,74568.5,25.01,1.29,-3.19,0,*6D
1501416012.21,24841,23.56,74570.3,25.03,1.59,-2.91,0,*68
1501416013.44,24842,23.56,74570.3,25.07,1.83,-2.59,0,*6C
1501416014.69,24843,23.56,74570.8,25.11,0.95,-3.51,0,*55
1501416015.9,24844,23.56,74574.3,25.21,1.47,-2.91,0,*62
1501416017.12,24845,23.56,74572.5,25.21,0.83,-3.63,0,*56
1501416018.32,24846,23.56,74572.5,25.25,0.13,-3.95,0,*51
1501416019.53,24847,23.56,74568.5,25.27,-0.53,-4.49,0,*7D
1501416020.75,24848,23.56,74568.3,25.31,-1.67,-5.47,0,*4C
1501416021.96,24849,23.56,74574.5,25.33,-2.75,-6.47,0,*4C
1501416023.17,24850,23.56,74572.0,25.35,-2.79,-6.13,0,*4F
1501416024.44,24851,23.56,74570.5,25.35,-1.83,-4.89,0,*49
1501416025.69,24852,23.56,74574.0,25.41,-2.43,-5.23,0,*47
1501416026.96,24853,23.56,74570.8,25.45,-2.67,-5.11,0,*45
1501416028.21,24854,23.56,74572.5,25.49,-3.39,-5.65,0,*47
1501416029.46,24855,23.56,74572.0,25.49,-3.75,-5.77,0,*4D
1501416030.71,24856,23.56,74572.3,25.51,-5.31,-7.27,0,*46
1501416031.95,24857,23.56,74570.3,25.51,-6.23,-8.07,0,*4A
1501416033.14,24858,23.56,74568.0,25.51,-6.89,-8.71,0,*44
1501416034.36,24859,23.56,74570.3,25.47,-6.31,-8.03,0,*44
1501416035.56,24860,23.56,74574.8,25.47,-7.15,-8.89,0,*4B
1501416036.78,24861,23.56,74568.3,25.47,-6.31,-7.91,0,*4B
1501416038.05,24862,23.56,74570.8,25.45,-6.97,-9.15,0,*44
1501416039.3,24863,23.56,74568.5,25.41,-7.57,-9.79,0,*46
1501416040.5,24864,23.56,74572.3,25.37,-6.55,-8.81,0,*45
1501416041.68,24865,23.56,74564.8,25.37,-6.69,-9.23,0,*42
1501416042.92,24866,23.56,74570.3,25.33,-4.73,-7.01,0,*42
1501416044.15,24867,23.56,74568.5,25.35,-4.21,-6.81,0,*4B
1501416045.36,24868,23.56,74570.0,25.35,-3.31,-6.05,0,*4E
1501416046.58,24869,23.56,74570.0,25.37,-2.95,-5.89,0,*45
1501416047.8,24870,23.56,74568.3,25.43,-2.39,-5.69,0,*46
1501416049.04,24871,23.56,74568.5,25.45,-3.55,-7.15,0,*43
1501416050.28,24872,23.56,74568.5,25.45,-4.65,-8.03,0,*4C
1501416051.5,24873,23.56,74572.0,25.45,-4.21,-7.53,0,*47
1501416052.74,24874,23.56,74572.3,25.45,-4.73,-8.33,0,*4E
1501416053.96,24875,23.56,74572.5,25.45,-4.57,-8.17,0,*4F
1501416055.17,24876,23.56,74568.3,25.43,-4.41,-7.91,0,*4C
1501416056.39,24877,23.56,74570.0,25.43,-5.73,-9.67,0,*4A
1501416057.62,24878,23.56,74570.0,25.43,-8.11,-12.43,0,*70
1501416058.81,24879,23.56,74568.5,25.37,-8.41,-12.25,0,*77
1501416060.06,24880,23.56,74572.5,25.33,-7.77,-11.77,0,*7B
1501416061.33,24881,23.56,74568.5,25.31,-8.81,-12.61,0,*7A
1501416062.55,24882,23.56,74570.8,25.25,-9.45,-13.15,0,*77
1501416063.77,24883,23.56,74570.0,25.21,-8.21,-11.63,0,*72
1501416065.02,24884,23.56,74572.5,25.19,-7.99,-11.15,0,*73
1501416066.26,24885,23.56,74572.5,25.15,-8.59,-11.73,0,*7D
1501416067.52,24886,23.56,74568.3,25.11,-8.51,-11.41,0,*73
1501416068.71,24887,23.56,74570.0,25.09,-8.37,-10.85,0,*72
1501416069.96,24888,23.56,74566.5,25.07,-7.95,-10.19,0,*71
1501416071.16,24889,23.56,74574.8,25.05,-8.33,-10.15,0,*7D
1501416072.38,24890,23.56,74570.5,25.03,-8.25,-9.71,0,*4E
1501416073.62,24891,23.56,74570.8,24.99,-7.77,-8.85,0,*4F
1501416074.86,24892,23.56,74570.5,24.99,-8.67,-9.41,0,*4B
1501416076.12,24893,23.56,74572.0,24.91,-8.03,-8.11,0,*44
1501416077.33,24894,23.56,74570.8,24.89,-8.21,-8.03,0,*49
1501416078.54,24895,23.56,74570.8,24.87,-8.17,-7.53,0,*49
1501416079.76,24896,23.56,74568.5,24.85,-8.25,-7.31,0,*4D
1501416080.99,24897,23.56,74570.0,24.81,-9.01,-7.39,0,*47
1501416082.18,24898,23.56,74572.3,24.77,-8.45,-6.73,0,*4F
1501416083.4,24899,23.56,74570.3,24.73,-8.55,-6.35,0,*49
1501416084.64,24900,23.56,74570.8,24.69,-8.29,-5.77,0,*4D
1501416085.87,24901,23.56,74568.5,24.65,-7.31,-4.45,0,*46
1501416087.06,24902,23.56,74570.8,24.63,-6.89,-3.79,0,*49
1501416088.29,24903,23.56,74572.8,24.61,-6.51,-3.03,0,*42
1501416089.47,24904,23.56,74570.3,24.59,-7.53,-3.87,0,*41
1501416090.71,24905,23.63,74574.3,24.53,-7.05,-3.07,0,*41
1501416091.97,24906,23.63,74572.8,24.51,-6.19,-2.07,0,*4D
1501416093.21,24907,23.63,74572.5,24.45,-5.85,-1.51,0,*4F
1501416094.48,24908,23.63,74572.0,24.45,-5.15,-0.85,0,*71
1501416095.7,24909,23.56,74570.3,24.41,-5.55,-1.05,0,*49
1501416096.89,24910,23.56,74572.0,24.37,-6.05,-1.29,0,*48
1501416098.09,24911,23.56,74572.5,24.35,-5.35,-0.45,0,*70
1501416099.28,24912,23.63,74570.3,24.29,-5.39,-0.49,0,*7E
1501416100.55,24913,23.63,74572.5,24.23,-5.15,-0.23,0,*77
1501416101.75,24914,23.56,74568.0,24.23,-4.09,0.97,0,*5E
1501416103.01,24915,23.56,74570.0,24.19,-3.51,1.55,0,*63
1501416104.2,24916,23.56,74570.8,24.17,-3.19,1.83,0,*69
1501416105.43,24917,23.56,74568.3,24.15,-3.07,2.01,0,*6C
1501416106.65,24918,23.56,74570.8,24.15,-2.43,2.61,0,*64
1501416107.83,24919,23.56,74568.3,24.11,-2.23,2.65,0,*63
1501416109.04,24920,23.56,74570.0,24.07,-1.51,3.33,0,*6A
1501416110.28,24921,23.63,74572.3,24.09,-1.29,3.45,0,*6B
1501416111.49,24922,23.56,74570.8,24.07,-0.89,3.59,0,*50
1501416112.71,24923,23.56,74570.0,24.05,-0.23,4.11,0,*58
1501416113.94,24924,23.56,74568.0,24.01,0.47,4.53,0,*72
1501416115.14,24925,23.56,74570.8,23.99,0.63,4.33,0,*75
1501416116.37,24926,23.63,74572.8,23.99,0.59,4.05,0,*7A
1501416117.61,24927,23.56,74570.8,23.97,1.17,4.15,0,*4F
1501416118.85,24928,23.63,74574.3,23.97,1.67,4.37,0,*47
1501416120.06,24929,23.56,74570.8,23.95,1.85,4.15,0,*48
1501416121.31,24930,23.56,74570.3,23.93,2.13,3.97,0,*47
1501416122.55,24931,23.56,74568.8,23.95,2.17,3.67,0,*4B
1501416123.76,24932,23.56,74568.8,23.91,2.61,3.75,0,*4E
1501416124.99,24933,23.63,74570.3,23.91,2.55,3.33,0,*4A
1501416126.23,24934,23.63,74570.8,23.91,3.03,3.33,0,*4F
1501416127.46,24935,23.56,74566.8,23.91,2.73,2.89,0,*48
1501416128.68,24936,23.56,74568.3,23.89,2.91,2.65,0,*4C
1501416129.94,24937,23.63,74570.0,23.85,3.67,3.53,0,*4D
1501416131.12,24938,23.63,74568.3,23.87,4.37,3.55,0,*44
1501416132.3,24939,23.63,74570.8,23.87,4.23,3.29,0,*4B
1501416133.53,24940,23.63,74568.3,23.87,4.79,3.53,0,*47
1501416134.73,24941,23.63,74568.0,23.87,4.85,3.23,0,*42
1501416135.95,24942,23.56,74570.0,23.87,4.37,2.59,0,*44
1501416137.18,24943,23.63,74570.3,23.87,5.05,2.89,0,*48
1501416138.37,24944,23.63,74568.5,23.87,5.41,2.99,0,*4E
1501416139.57,24945,23.63,74568.3,23.85,5.59,2.95,0,*48
1501416140.78,24946,23.63,74568.5,23.87,5.55,2.61,0,*4E
1501416142.01,24947,23.63,74566.0,23.87,5.77,2.51,0,*4C
1501416143.22,24948,23.63,74568.5,23.89,5.23,1.83,0,*40
1501416144.45,24949,23.63,74570.0,23.89,4.57,0.83,0,*72
1501416145.7,24950,23.63,74568.3,23.85,4.67,0.75,0,*7C
1501416146.96,24951,23.63,74570.0,23.89,4.75,0.55,0,*70
1501416148.16,24952,23.63,74566.3,23.87,4.53,0.21,0,*7A
1501416149.37,24953,23.56,74564.8,23.85,4.19,-0.29,0,*52
1501416150.6,24954,23.56,74564.3,23.85,4.19,-0.27,0,*5B
1501416151.83,24955,23.56,74564.8,23.85,4.01,-0.81,0,*5F
1501416153.07,24956,23.63,74568.5,23.85,3.75,-1.25,0,*67
1501416154.25,24957,23.63,74570.3,23.83,3.55,-1.55,0,*65
1501416155.48,24958,23.63,74566.8,23.79,2.99,-2.03,0,*6E
1501416156.75,24959,23.63,74566.0,23.79,2.39,-2.71,0,*60
1501416158.01,24960,23.63,74564.8,23.75,2.47,-2.55,0,*69
1501416159.19,24961,23.63,74564.5,23.73,2.31,-2.79,0,*61
1501416160.44,24962,23.63,74564.3,23.71,1.59,-3.47,0,*61
1501416161.67,24963,23.63,74564.3,23.71,1.05,-4.01,0,*6C
1501416162.9,24964,23.56,74562.5,23.67,0.67,-4.25,0,*5F
1501416164.15,24965,23.56,74562.5,23.63,0.71,-4.01,0,*5B
1501416165.35,24966,23.63,74568.5,23.63,0.09,-4.41,0,*63
1501416166.59,24967,23.63,74566.3,23.55,-0.65,-5.23,0,*75
1501416167.79,24968,23.56,74562.3,23.53,0.29,-3.83,0,*55
1501416169.01,24969,23.63,74564.3,23.49,1.21,-2.39,0,*66
1501416170.27,24970,23.63,74562.5,23.45,1.59,-1.87,0,*6B
1501416171.51,24971,23.63,74568.0,23.45,1.63,-1.63,0,*69
1501416172.7,24972,23.63,74564.3,23.43,0.29,-2.87,0,*5A
1501416173.92,24973,23.63,74564.0,23.41,0.67,-2.27,0,*59
1501416175.17,24974,23.63,74566.0,23.37,1.21,-1.33,0,*6A
1501416176.42,24975,23.56,74562.5,23.37,1.85,-0.37,0,*50
1501416177.63,24976,23.63,74566.0,23.39,1.55,-0.65,0,*57
1501416178.84,24977,23.63,74564.3,23.33,1.83,-0.11,0,*54
1501416180.06,24978,23.63,74566.8,23.31,1.33,-0.49,0,*5F
1501416181.29,24979,23.63,74564.3,23.29,1.63,0.09,0,*4B
1501416182.52,24980,23.63,74566.0,23.29,-0.41,-2.15,0,*73
1501416183.7,24981,23.63,74566.0,23.27,1.01,-0.29,0,*59
1501416184.93,24982,23.63,74566.0,23.25,2.13,1.01,0,*4E
1501416186.15,24983,23.63,74566.0,23.23,1.47,0.47,0,*78
1501416187.35,24984,23.63,74564.8,23.23,1.93,0.97,0,*7B
1501416188.58,24985,23.63,74564.5,23.23,2.21,1.47,0,*4C
1501416189.81,24986,23.63,74566.0,23.21,2.47,1.75,0,*4C
1501416191.02,24987,23.63,74566.5,23.19,2.05,1.05,0,*47
1501416192.25,24988,23.63,74566.0,23.19,2.77,2.13,0,*49
1501416193.51,24989,23.63,74564.3,23.15,3.11,2.21,0,*44
1501416194.74,24990,23.63,74564.8,23.15,2.91,2.17,0,*40
1501416195.97,24991,23.63,74566.0,23.15,3.37,2.61,0,*4D
1501416197.23,24992,23.63,74564.8,23.15,3.23,2.43,0,*4B
1501416198.48,24993,23.63,74566.8,23.11,3.79,3.19,0,*4F
1501416199.71,24994,23.63,74566.3,23.09,3.71,3.23,0,*40
1501416200.91,24995,23.63,74566.3,23.09,3.45,2.99,0,*46
1501416202.12,24996,23.63,74566.5,23.09,4.71,4.49,0,*4E
1501416203.33,24997,23.63,74568.5,23.07,5.07,4.85,0,*41
1501416204.54,24998,23.63,74560.8,23.05,4.81,4.75,0,*4C
1501416205.77,24999,23.63,74566.0,23.05,4.93,5.05,0,*48
1501416206.96,25000,23.63,74566.5,23.05,5.11,5.11,0,*4E
1501416208.17,25001,23.63,74564.0,23.05,4.89,4.93,0,*44
1501416209.43,25002,23.63,74562.5,23.03,4.75,4.79,0,*46
1501416210.6,25003,23.63,74564.3,23.01,4.49,4.53,0,*42
1501416211.84,25004,23.63,74560.8,22.99,4.59,4.33,0,*42
1501416213.04,25005,23.63,74560.0,22.95,4.11,3.85,0,*49
1501416214.22,25006,23.63,74564.8,22.93,4.41,4.15,0,*47
1501416215.4,25007,23.63,74566.8,22.89,4.45,4.15,0,*49
1501416216.6,25008,23.63,74562.0,22.87,4.53,4.11,0,*4B
1501416217.84,25009,23.63,74566.0,22.87,4.93,4.57,0,*44
1501416219.05,25010,23.63,74562.5,22.83,5.01,4.53,0,*46
1501416220.28,25011,23.63,74562.8,22.81,5.73,5.29,0,*4C
1501416221.51,25012,23.63,74566.3,22.81,6.43,5.99,0,*44
1501416222.72,25013,23.63,74566.3,22.81,6.03,5.45,0,*40
1501416223.96,25014,23.63,74568.5,22.79,5.51,5.01,0,*44
1501416225.15,25015,23.63,74564.5,22.79,5.73,5.29,0,*4F
1501416226.37,25016,23.63,74564.0,22.75,6.13,5.59,0,*42
1501416227.6,25017,23.63,74566.8,22.75,6.69,6.17,0,*47
1501416228.83,25018,23.63,74570.8,22.75,7.61,7.27,0,*43
1501416230.09,25019,23.63,74564.3,22.77,8.37,7.87,0,*46
1501416231.29,25020,23.63,74564.5,22.79,8.65,8.13,0,*47
1501416232.49,25021,23.63,74568.5,22.79,7.65,6.97,0,*4B
1501416233.69,25022,23.63,74566.3,22.79,7.79,7.11,0,*4A
1501416234.89,25023,23.63,74566.8,22.79,7.55,6.61,0,*43
1501416236.1,25024,23.63,74568.5,22.81,6.83,5.99,0,*4D
1501416237.33,25025,23.63,74566.5,22.79,6.65,5.93,0,*49
1501416238.56,25026,23.63,74570.0,22.79,6.39,5.51,0,*4D
1501416239.73,25027,23.63,74564.0,22.79,6.07,5.37,0,*41
1501416240.93,25028,23.63,74566.0,22.79,7.09,6.39,0,*4C
1501416242.17,25029,23.63,74566.0,22.75,6.51,5.89,0,*45
1501416243.41,25030,23.63,74568.5,22.77,6.87,6.33,0,*46
1501416244.59,25031,23.63,74566.8,22.75,6.93,6.29,0,*4B
1501416245.82,25032,23.63,74566.8,22.75,6.61,6.17,0,*48
1501416247.0,25033,23.63,74566.5,22.75,7.45,7.05,0,*4C
1501416248.22,25034,23.63,74566.0,22.75,7.19,6.69,0,*49
1501416249.43,25035,23.63,74568.3,22.75,6.97,6.69,0,*4F
1501416250.63,25036,23.63,74566.0,22.75,7.15,6.83,0,*43
1501416251.84,25037,23.63,74564.3,22.75,7.65,7.45,0,*4E
1501416253.07,25038,23.63,74566.5,22.77,7.65,7.45,0,*43
1501416254.3,25039,23.63,74564.3,22.75,7.95,7.73,0,*4A
1501416255.51,25040,23.63,74568.3,22.77,8.45,8.15,0,*4B
1501416256.73,25041,23.63,74566.5,22.79,8.37,7.91,0,*42
1501416257.95,25042,23.63,74564.3,22.79,8.37,7.87,0,*46
1501416259.18,25043,23.63,74566.0,22.79,7.87,7.23,0,*4D
1501416260.36,25044,23.63,74564.0,22.79,6.83,6.03,0,*4C
1501416261.61,25045,23.63,74562.8,22.81,8.13,7.23,0,*4E
1501416262.84,25046,23.63,74566.3,22.79,8.13,7.11,0,*4B
1501416264.06,25047,23.63,74564.3,22.81,8.05,6.91,0,*43
1501416265.26,25048,23.63,74566.0,22.79,7.47,6.21,0,*49
1501416266.52,25049,23.63,74566.8,22.81,8.47,7.23,0,*43
1501416267.72,25050,23.63,74568.0,22.81,8.19,6.93,0,*4A
1501416268.92,25051,23.63,74570.5,22.83,8.29,6.93,0,*4A
1501416270.1,25052,23.63,74562.8,22.83,8.23,6.79,0,*47
1501416271.31,25053,23.63,74564.5,22.85,9.21,7.77,0,*4C
1501416272.52,25054,23.63,74564.8,22.87,8.45,6.97,0,*45
1501416273.72,25055,23.63,74564.0,22.87,8.01,6.29,0,*41
1501416274.98,25056,23.63,74564.5,22.87,8.59,6.87,0,*4B
1501416276.16,25057,23.63,74566.8,22.89,9.25,7.45,0,*41
1501416277.38,25058,23.63,74564.3,22.93,9.71,7.61,0,*42
1501416278.6,25059,23.63,74564.5,22.95,9.43,7.11,0,*43
1501416279.81,25060,23.63,74568.3,22.97,9.43,6.61,0,*4D
1501416281.01,25061,23.63,74568.0,23.01,8.51,5.45,0,*45
1501416282.18,25062,23.63,74566.0,23.01,7.33,4.11,0,*4D
1501416283.43,25063,23.63,74568.3,23.03,7.65,4.63,0,*48
1501416284.66,25064,23.63,74566.3,23.03,6.53,3.81,0,*40
1501416285.85,25065,23.63,74564.8,23.05,6.97,4.41,0,*44
1501416287.06,25066,23.63,74568.8,23.07,7.45,5.19,0,*47
1501416288.3,25067,23.63,74566.0,23.09,6.87,4.71,0,*48
1501416289.55,25068,23.63,74566.0,23.11,5.77,4.05,0,*41
1501416290.78,25069,23.63,74566.5,23.11,6.47,5.45,0,*45
1501416291.99,25070,23.63,74564.5,23.11,6.33,5.67,0,*4E
1501416293.22,25071,23.63,74564.8,23.11,5.99,5.89,0,*4C
1501416294.45,25072,23.63,74570.5,23.11,5.93,6.03,0,*44
1501416295.71,25073,23.63,74564.8,23.15,6.65,7.19,0,*41
1501416296.97,25074,23.63,74568.0,23.17,6.69,7.69,0,*4F
1501416298.15,25075,23.63,74566.8,23.19,7.97,8.87,0,*4F
1501416299.39,25076,23.63,74566.0,23.21,8.37,9.25,0,*4B
1501416300.65,25077,23.63,74568.5,23.25,8.37,9.57,0,*4B
1501416301.91,25078,23.63,74566.0,23.29,8.47,9.53,0,*4B
1501416303.12,25079,23.63,74566.8,23.31,8.61,9.89,0,*40
1501416304.33,25080,23.63,74568.3,23.33,8.45,9.75,0,*41
1501416305.53,25081,23.63,74570.3,23.39,8.29,9.63,0,*47
1501416306.75,25082,23.63,74566.0,23.41,8.45,9.85,0,*49
1501416307.96,25083,23.63,74570.8,23.43,8.29,9.75,0,*4F
1501416309.19,25084,23.63,74564.8,23.47,7.61,9.19,0,*45
1501416310.39,25085,23.63,74564.8,23.47,7.59,9.19,0,*4F
1501416311.62,25086,23.63,74564.5,23.51,8.05,9.77,0,*45
1501416312.85,25087,23.63,74568.3,23.51,7.41,9.19,0,*43
1501416314.06,25088,23.63,74566.0,23.53,6.75,8.47,0,*42
1501416315.28,25089,23.63,74566.3,23.55,6.79,8.47,0,*49
1501416316.47,25090,23.63,74564.5,23.61,6.79,8.45,0,*44
1501416317.67,25091,23.63,74570.0,23.61,6.21,7.83,0,*4D
1501416318.91,25092,23.63,74564.8,23.63,6.93,8.55,0,*41
1501416320.12,25093,23.63,74570.3,23.65,6.97,8.13,0,*40
1501416321.35,25094,23.63,74566.8,23.69,6.13,6.91,0,*43
1501416322.58,25095,23.63,74570.8,23.73,6.39,6.87,0,*46
1501416323.79,25096,23.63,74570.8,23.73,5.37,5.51,0,*40
1501416325.01,25097,23.63,74570.5,23.75,5.77,5.63,0,*42
1501416326.17,25098,23.63,74568.0,23.77,5.45,4.81,0,*43
1501416327.38,25099,23.63,74568.8,23.83,4.37,3.53,0,*45
1501416328.61,25100,23.63,74564.8,23.83,3.97,2.85,0,*43
1501416329.82,25101,23.63,74570.8,23.83,4.33,3.03,0,*44
1501416331.0,25102,23.63,74568.5,23.87,4.81,2.95,0,*44
1501416332.2,25103,23.63,74568.3,23.91,4.27,2.01,0,*43
1501416333.41,25104,23.63,74568.5,23.91,3.03,0.43,0,*71
1501416334.65,25105,23.63,74570.8,23.93,2.77,-0.33,0,*5A
1501416335.89,25106,23.63,74568.3,23.97,2.61,-1.13,0,*69
1501416337.13,25107,23.63,74572.5,23.97,2.55,-1.17,0,*6B
1501416338.39,25108,23.63,74570.3,24.05,2.13,-1.83,0,*67
1501416339.62,25109,23.63,74574.3,24.07,1.67,-2.75,0,*6E
1501416340.86,25110,23.63,74568.0,24.09,0.25,-4.21,0,*58
1501416342.04,25111,23.63,74570.8,24.13,0.05,-4.49,0,*6E
1501416343.26,25112,23.63,74572.3,24.17,-0.69,-5.23,0,*73
1501416344.5,25113,23.63,74572.3,24.19,-1.51,-5.73,0,*43
1501416345.7,25114,23.63,74570.5,24.21,-2.31,-6.31,0,*4F
1501416346.91,25115,23.63,74566.8,24.23,-2.99,-6.85,0,*41
1501416348.16,25116,23.63,74566.8,24.23,-3.83,-7.27,0,*41
1501416349.38,25117,23.63,74570.8,24.25,-4.29,-7.57,0,*46
1501416350.57,25118,23.63,74568.5,24.25,-6.09,-9.05,0,*40
1501416351.77,25119,23.63,74570.5,24.29,-6.35,-9.01,0,*46
1501416353.03,25120,23.63,74570.3,24.31,-7.35,-9.61,0,*42
1501416354.27,25121,23.63,74570.8,24.29,-8.07,-10.01,0,*7A
1501416355.47,25122,23.63,74568.8,24.29,-9.01,-10.23,0,*7E
1501416356.69,25123,23.63,74570.8,24.29,-7.99,-8.89,0,*49
1501416357.91,25124,23.63,74568.0,24.31,-8.59,-8.89,0,*44
1501416359.15,25125,23.63,74564.5,24.29,-9.41,-9.41,0,*41
1501416360.36,25126,23.63,74568.0,24.29,-10.57,-10.01,0,*41
1501416361.59,25127,23.63,74570.5,24.29,-12.29,-11.33,0,*4B
1501416362.84,25128,23.63,74570.0,24.23,-14.89,-13.29,0,*4B
1501416364.06,25129,23.63,74570.0,24.17,-14.69,-12.57,0,*4B
1501416365.27,25130,23.63,74568.3,24.13,-14.15,-11.45,0,*4C
1501416366.5,25131,23.63,74570.0,24.11,-13.01,-9.93,0,*7F
1501416367.75,25132,23.63,74568.0,24.09,-13.07,-9.45,0,*78
1501416368.97,25133,23.63,74566.3,24.07,-13.33,-9.23,0,*70
1501416370.24,25134,23.63,74568.3,24.05,-13.87,-9.41,0,*7E
1501416371.5,25135,23.63,74568.5,23.97,-13.79,-8.89,0,*77
1501416372.72,25136,23.63,74570.5,23.95,-13.51,-8.03,0,*7E
1501416373.95,25137,23.63,74574.0,23.93,-13.55,-7.83,0,*7A
1501416375.2,25138,23.63,74574.3,23.91,-13.61,-7.39,0,*71
1501416376.48,25139,23.63,74566.8,23.89,-12.53,-5.93,0,*7B
1501416377.73,25140,23.63,74568.8,23.85,-11.33,-4.33,0,*77
1501416378.95,25141,23.69,74572.5,23.87,-10.35,-3.55,0,*74
1501416380.15,25142,23.69,74572.8,23.87,-10.35,-3.11,0,*77
1501416381.42,25143,23.69,74572.0,23.85,-11.07,-3.63,0,*71
1501416382.62,25144,23.69,74572.3,23.87,-10.85,-3.27,0,*7F
1501416383.87,25145,23.63,74570.3,23.85,-10.67,-2.87,0,*7B
1501416385.1,25146,23.63,74568.3,23.83,-10.63,-2.83,0,*7E
1501416386.34,25147,23.63,74572.0,23.79,-10.57,-2.71,0,*70
1501416387.57,25148,23.63,74568.8,23.77,-10.57,-2.51,0,*73
1501416388.82,25149,23.63,74568.5,23.75,-10.23,-2.11,0,*77
1501416390.06,25150,23.63,74568.5,23.75,-10.19,-1.95,0,*79
1501416391.27,25151,23.63,74570.8,23.73,-10.23,-1.95,0,*77
1501416392.52,25152,23.63,74572.0,23.71,-10.23,-1.83,0,*71
1501416393.7,25153,23.63,74568.0,23.69,-9.93,-1.33,0,*41
1501416394.92,25154,23.63,74570.5,23.67,-8.71,-0.07,0,*43
1501416396.15,25155,23.69,74572.3,23.65,-7.65,0.75,0,*52
1501416397.35,25156,23.69,74568.5,23.65,-7.53,0.91,0,*5E
1501416398.58,25157,23.69,74568.0,23.65,-9.49,-0.97,0,*71
1501416399.8,25158,23.69,74568.5,23.63,-8.89,-0.45,0,*7A
1501416400.99,25159,23.63,74568.3,23.57,-8.29,0.13,0,*58
1501416402.21,25160,23.63,74566.8,23.57,-7.91,0.33,0,*5C
1501416403.41,25161,23.69,74566.3,23.57,-7.49,0.63,0,*5D
1501416404.63,25162,23.63,74566.8,23.53,-7.11,0.87,0,*5D
1501416405.89,25163,23.69,74568.3,23.51,-7.73,0.13,0,*57
1501416407.08,25164,23.63,74564.3,23.49,-7.49,0.13,0,*50
1501416408.32,25165,23.69,74568.0,23.45,-7.43,-0.03,0,*4B
1501416409.54,25166,23.69,74566.0,23.43,-7.57,-0.37,0,*7C
1501416410.73,25167,23.63,74564.3,23.39,-7.23,-0.11,0,*77
1501416411.99,25168,23.63,74566.8,23.37,-6.23,0.41,0,*5F
1501416413.2,25169,23.63,74566.5,23.31,-6.35,0.33,0,*5A
1501416414.44,25170,23.63,74566.0,23.29,-5.11,1.05,0,*6A
1501416415.67,25171,23.69,74568.5,23.27,-5.77,0.33,0,*51
1501416416.9,25172,23.69,74566.5,23.23,-5.69,0.21,0,*5A
1501416418.11,25173,23.63,74564.5,23.19,-5.35,0.17,0,*5E
1501416419.34,25174,23.63,74566.8,23.19,-4.85,0.29,0,*5E
1501416420.57,25175,23.69,74564.3,23.15,-4.41,0.37,0,*54
1501416421.8,25176,23.69,74568.3,23.09,-3.63,0.83,0,*52
1501416423.01,25177,23.69,74568.0,23.09,-2.79,1.29,0,*68
1501416424.23,25178,23.69,74566.8,23.09,-1.99,1.75,0,*63
1501416425.49,25179,23.69,74564.3,23.07,-2.47,0.75,0,*5D
1501416426.69,25180,23.63,74564.8,23.07,-1.59,1.05,0,*61
1501416427.93,25181,23.63,74562.8,23.07,-1.17,1.25,0,*68
1501416429.16,25182,23.69,74570.3,23.05,-1.01,0.95,0,*54
1501416430.36,25183,23.69,74566.8,23.01,-1.39,0.09,0,*6F
1501416431.57,25184,23.63,74566.8,23.03,0.01,1.47,0,*46
1501416432.83,25185,23.63,74566.8,23.03,1.13,2.05,0,*40
1501416434.07,25186,23.69,74570.0,23.01,1.21,2.13,0,*47
1501416435.3,25187,23.63,74566.0,23.05,1.43,1.85,0,*4A
1501416436.54,25188,23.69,74570.0,23.07,1.13,1.05,0,*4A
1501416437.79,25189,23.63,74564.8,23.07,2.21,1.85,0,*41
1501416439.02,25190,23.69,74566.3,23.09,1.93,1.33,0,*40
1501416440.22,25191,23.69,74568.5,23.11,2.61,1.79,0,*48
1501416441.46,25192,23.69,74568.5,23.17,2.95,1.85,0,*45
1501416442.72,25193,23.69,74570.0,23.21,4.31,3.33,0,*46
1501416443.96,25194,23.69,74568.5,23.25,4.89,3.75,0,*44
1501416445.16,25195,23.69,74570.5,23.33,4.57,3.25,0,*44
1501416446.4,25196,23.63,74566.8,23.43,4.05,2.77,0,*41
1501416447.62,25197,23.69,74570.5,23.47,2.73,1.37,0,*44
1501416448.87,25198,23.69,74566.8,23.51,2.25,0.79,0,*74
1501416450.08,25199,23.63,74568.5,23.53,1.09,-0.61,0,*5E
1501416451.29,25200,23.63,74564.8,23.55,-0.45,-2.15,0,*7E
1501416452.5,25201,23.69,74570.3,23.55,-0.45,-2.35,0,*7D
1501416453.71,25202,23.69,74566.8,23.61,-1.01,-2.87,0,*41
1501416454.93,25203,23.69,74566.8,23.61,-1.05,-2.87,0,*44
1501416456.15,25204,23.69,74568.0,23.61,-0.65,-2.63,0,*7E
1501416457.36,25205,23.63,74566.5,23.65,-0.57,-2.71,0,*79
1501416458.57,25206,23.69,74566.5,23.65,-2.43,-4.77,0,*4D
1501416459.84,25207,23.69,74570.0,23.67,-3.71,-6.19,0,*44
1501416461.1,25208,23.69,74568.3,23.67,-2.59,-5.23,0,*4A
1501416462.37,25209,23.69,74568.5,23.67,-2.71,-5.23,0,*41
1501416463.62,25210,23.69,74570.5,23.71,-1.83,-4.29,0,*4B
1501416464.84,25211,23.69,74570.5,23.69,-3.19,-5.89,0,*49
1501416466.08,25212,23.69,74570.0,23.69,-3.71,-6.63,0,*43
1501416467.3,25213,23.69,74568.8,23.69,-4.05,-7.01,0,*43
1501416468.52,25214,23.69,74568.5,23.69,-4.17,-7.01,0,*47
1501416469.73,25215,23.69,74570.3,23.71,-4.05,-6.85,0,*41
1501416470.99,25216,23.69,74570.8,23.71,-4.69,-7.57,0,*46
1501416472.21,25217,23.63,74564.8,23.71,-3.79,-6.73,0,*46
1501416473.48,25218,23.69,74572.5,23.71,-4.89,-7.65,0,*47
1501416474.72,25219,23.69,74568.5,23.71,-3.39,-5.93,0,*41
1501416475.97,25220,23.69,74570.3,23.71,-3.79,-6.19,0,*4E
1501416477.2,25221,23.69,74570.5,23.71,-4.69,-6.73,0,*45
1501416478.41,25222,23.69,74568.3,23.73,-6.13,-7.95,0,*42
1501416479.65,25223,23.69,74570.0,23.71,-6.39,-7.69,0,*4A
1501416480.88,25224,23.69,74570.3,23.67,-5.77,-6.73,0,*49
1501416482.12,25225,23.69,74568.5,23.67,-5.69,-6.13,0,*41
1501416483.4,25226,23.69,74568.8,23.67,-5.23,-5.03,0,*4E
1501416484.66,25227,23.63,74566.3,23.67,-5.65,-5.15,0,*4A
1501416485.87,25228,23.69,74570.0,23.67,-5.43,-4.45,0,*45
1501416487.13,25229,23.69,74570.8,23.67,-5.23,-3.67,0,*45
1501416488.34,25230,23.69,74572.8,23.65,-4.89,-2.95,0,*42
1501416489.52,25231,23.63,74566.8,23.65,-4.45,-2.15,0,*4B
1501416490.73,25232,23.69,74570.8,23.65,-4.85,-2.19,0,*48
1501416491.95,25233,23.69,74568.3,23.65,-5.23,-2.23,0,*4D
1501416493.13,25234,23.69,74570.3,23.65,-5.43,-2.19,0,*45
1501416494.4,25235,23.69,74568.5,23.63,-5.31,-1.87,0,*43
1501416495.59,25236,23.69,74568.5,23.61,-5.43,-1.79,0,*46
1501416496.81,25237,23.69,74568.0,23.61,-5.31,-1.63,0,*49
1501416498.02,25238,23.69,74566.3,23.57,-5.51,-1.91,0,*48
1501416499.21,25239,23.63,74564.8,23.53,-4.29,-0.69,0,*75
1501416500.45,25240,23.69,74568.3,23.55,-4.85,-1.17,0,*43
1501416501.66,25241,23.69,74572.5,23.53,-5.43,-1.83,0,*42
1501416502.88,25242,23.69,74570.3,23.53,-5.19,-1.51,0,*41
1501416504.12,25243,23.69,74570.0,23.51,-4.99,-1.47,0,*4C
1501416505.37,25244,23.69,74570.0,23.49,-5.85,-2.51,0,*4A
1501416506.6,25245,23.69,74570.0,23.49,-5.55,-2.11,0,*42
1501416507.84,25246,23.69,74564.3,23.43,-5.89,-2.67,0,*4B
1501416509.08,25247,23.63,74564.8,23.41,-5.89,-2.87,0,*46
1501416510.33,25248,23.69,74568.0,23.41,-5.55,-2.51,0,*43
1501416511.58,25249,23.69,74566.5,23.37,-5.93,-3.19,0,*44
1501416512.77,25250,23.69,74570.3,23.31,-6.01,-3.23,0,*4B
1501416513.98,25251,23.69,74568.3,23.31,-5.73,-3.23,0,*4C
1501416515.24,25252,23.69,74570.8,23.25,-6.23,-3.59,0,*41